Weather in Voznesenka

Ukraine / Zaporizhia Region     46°52′07″N   35°27′19″E
temp.,
°C
wind,
m/s
gust,
m/s
humid.,
%
clouds,
%
prec.,
mm/h
press.,
hPa
HPBL,
m
22 may, sun
sun2200:00+15sw61553100 0.0 1008531
03:00+15wsw51063100 0.4 1007485
06:00+13wsw51091100 1.8 1005392
09:00+14wsw4792100 6.1 1004369
12:00+15wnw4768100 0.0 1004543
15:00+21w6104199 0.0 10032717
18:00+17nw5105760 0.0 1003700
21:00+13wnw34715 0.0 100352
23 may, mon
mon2300:00+11wnw49825 0.0 1004181
03:00+9nw38915 0.0 1005191
06:00+9wnw379045 0.0 1005197
09:00+12wnw3481100 0.1 1006361
12:00+13ne3376100 0.7 1006511
15:00+14ese2371100 1.0 1007622
18:00+14se227198 0.0 1007380
21:00+12n2277100 0.4 100940
24 may, tue
tue2400:00+12wnw2277100 0.1 101018
03:00+9nnw358538 0.1 101063
06:00+9n337558 0.0 101164
09:00+15n34525 0.0 1012629
12:00+18nnw3340100 0.0 10122357
15:00+18nnw543992 0.0 10131546
18:00+17n343988 0.0 10141996
21:00+13n225653 0.0 101613
25 may, wed
wed2500:00+10nnw22665 0.0 101818
03:00+9nw22685 0.0 101810
06:00+10nw33695 0.0 101959
09:00+17nw34535 0.0 1020752
12:00+20nw344267 0.0 10202156
15:00+19wsw2349100 0.0 1020868
18:00+20sw44477 0.0 1020871
21:00+14sw466424 0.0 1021109
26 may, thu
thu2600:00+15sw3660100 0.0 1021136
03:00+14wsw3463100 0.0 102172
06:00+13sw236680 0.0 102148
09:00+19ssw56505 0.0 1020829
12:00+20ssw7845100 0.0 10191110
15:00+19ssw6748100 0.0 10191078
18:00+17ssw4765100 0.0 1018364
21:00+16wsw51150100 0.0 1018510